Regional Weather Roundup
Issued by NWS

Home | Current Version | Previous Version | Text Only | Print | Product List | Glossary On
Versions: 1 2 3 4 5 6 7 8 9 10 11 12 13 14 15 16 17 18 19 20 21 22 23 24 25 26 27 28 29 30 31 32 33 34 35 36 37 38 39 40 41 42 43 44 45 46 47 48 49 50
000
ASPQ40 PGUM 011012
RWRPQ
WEATHER ROUNDUP FOR THE MARIANAS AND MICRONESIA
NATIONAL WEATHER SERVICE TIYAN GU
800 PM CHST FRI AUG 01 2014

GUZ001>004-011100-
MARIANA ISLANDS-

CITY           SKY/WX    TMP DP  RH WIND       PRES   REMARKS
GUAM AIRPORT   PTCLDY    81  77  89 SE3       29.85R
ANDERSEN AFB   PTCLDY    79  75  89 S3        29.86
ROTA AIRPORT   MOCLDY    81  77  89 S3        29.86R
TINIAN AP      PTCLDY    81  75  83 CALM      29.83R
SAIPAN AP      CLEAR     81  75  83 E3        29.85R

$$

PMZ161-011100-
REPUBLIC OF PALAU-

CITY           SKY/WX    TMP DP  RH WIND       PRES   REMARKS
KOROR AP       CLOUDY    84  81  89 S5        29.81R HX  98
KOROR WSO      CLOUDY    82  77  83 S7        29.80R HX  91

$$

PMZ171>174-011100-
FEDERATED STATES OF MICRONESIA-

CITY           SKY/WX    TMP DP  RH WIND       PRES   REMARKS
YAP AIRPORT    NOT AVBL
CHUUK AP       CLOUDY    79  77  94 W8        29.83R
POHNPEI AP     NOT AVBL
POHNPEI WSO    CLOUDY    75  75 100 SW5       29.90R
KOSRAE AP      NOT AVBL

$$

PMZ181-011100-
REPUBLIC OF THE MARSHALL ISLANDS-

CITY           SKY/WX    TMP DP  RH WIND       PRES   REMARKS
KWAJALEIN AP   CLEAR     82  72  69 CALM      29.89R
MAJURO AP      NOT AVBL
MAJURO WSO     MOCLDY    82  77  83 CALM      29.87R HX  91

$$




USA.gov is the U.S. government's official web portal to all federal, state and local government web resources and services.